[[{"header":{"parameterUnit":"m.s-1","parameterCategory":2,"la1":30.2991,"la2":30.254,"lo1":-89.0895,"lo2":-89.0444,"dy":0.0017,"dx":0.0017,"nx":28,"ny":28,"refTime":"2023-08-13T21:00:00:Z","depth":"0","parameterNumber":2,"parameterNumberName":"U-component_of_CURRENTS"},"data":[0,0,0,0,0,0,0,0,0,0,0,0,0,0,0,0,0,0,0,0,0,0,0,0,0,0,0,0,0,0,0,0,0,0,0,0,0,0,0,0,0,0,0,0,0,0,0,0,0,0,0,0,0,0,0,0,0,0,-0.0617,-0.0618,0,-0.0714,-0.0714,-0.0715,-0.0718,-0.0718,-0.0717,-0.0717,-0.0671,-0.067,-0.067,0,0,0,0,0,0,0,0,0,0,0,0,0,-0.0643,-0.064,-0.0617,-0.0618,-0.062,-0.0714,-0.0714,-0.0715,-0.0718,-0.0718,-0.0717,-0.0716,-0.0671,-0.0671,-0.067,0,0,0,0,0,0,0,0,0,0,0,0,0,-0.0667,-0.0639,-0.0616,-0.0638,-0.0642,-0.0714,-0.0714,-0.0715,-0.0718,-0.0718,-0.0717,-0.0716,-0.0672,-0.0671,-0.067,-0.0679,0,0,-0.0666,-0.0666,0,0,0,0,0,0,0,0,-0.0666,-0.0665,-0.0633,-0.0637,-0.0641,-0.0709,-0.0708,-0.0698,-0.0719,-0.0682,-0.0717,-0.0716,-0.0676,-0.0674,-0.0686,-0.0676,-0.0674,-0.0666,-0.0665,-0.0665,-0.0665,0,0,0,0,0,0,0,-0.0664,-0.0663,-0.0648,-0.0636,-0.064,-0.0716,-0.0716,-0.0707,-0.0674,-0.0685,-0.0687,-0.071,-0.0676,-0.0688,-0.0685,-0.0674,-0.0666,-0.0665,-0.0665,-0.0664,-0.0608,-0.0608,0,0,0,0,0,0,-0.0655,-0.0659,-0.0645,-0.0651,-0.066,-0.0716,-0.0715,-0.0682,-0.0677,-0.0679,-0.071,-0.071,-0.069,-0.0686,-0.0683,-0.0629,-0.0665,-0.0664,-0.0663,-0.0609,-0.0608,-0.0607,0,0,0,0,0,0,-0.0654,-0.0651,-0.0641,-0.0668,-0.0672,-0.0715,-0.0679,-0.0685,-0.0701,-0.0699,-0.0696,-0.0722,-0.0689,-0.0685,-0.0651,-0.0629,-0.0663,-0.0663,-0.061,-0.0609,-0.0608,-0.056,0,0,0,0,0,0,-0.0654,-0.0648,-0.0619,-0.0664,-0.0671,-0.0665,-0.0681,-0.0688,-0.072,-0.0719,-0.0708,-0.0703,-0.0688,-0.0652,-0.065,-0.0628,-0.0662,-0.0611,-0.061,-0.0608,-0.0563,-0.0558,-0.0553,0,0,0,0,0,-0.0653,-0.0608,-0.0615,-0.0615,-0.0627,-0.0666,-0.0674,-0.0701,-0.0721,-0.0715,-0.07,-0.0704,-0.0641,-0.065,-0.0647,-0.0625,-0.0612,-0.061,-0.0608,-0.0565,-0.0559,-0.0553,0,0,0,0,0,0,-0.0604,-0.0607,-0.0615,-0.0571,-0.0613,-0.0668,-0.0666,-0.0708,-0.07,-0.0688,-0.0691,-0.0683,-0.0643,-0.0647,-0.0658,-0.0606,-0.0629,-0.0626,-0.0597,-0.0591,-0.0586,-0.0585,-0.0661,0,0,0,0,0,-0.0582,-0.0547,-0.0584,-0.0557,-0.0563,-0.0622,-0.0645,-0.0669,-0.0681,-0.068,-0.0674,-0.0659,-0.0637,-0.0623,-0.06,-0.0578,-0.0574,-0.0563,-0.0558,-0.0554,-0.0552,-0.0523,-0.0516,-0.0601,-0.0601,-0.0601,0,0,-0.0571,-0.0563,-0.055,-0.0547,-0.0572,-0.0573,-0.0629,-0.0651,-0.0653,-0.0672,-0.0642,-0.0638,-0.0626,-0.0584,-0.0569,-0.0583,-0.0526,-0.0552,-0.0548,-0.0548,-0.0521,-0.0512,-0.0505,-0.06,-0.06,-0.06,0,0,-0.0536,-0.0504,-0.047,-0.0484,-0.0515,-0.0543,-0.0552,-0.0596,-0.0602,-0.0593,-0.0598,-0.0581,-0.0558,-0.0541,-0.0532,-0.0493,-0.0498,-0.0492,-0.0468,-0.044,-0.0433,-0.0426,-0.0404,-0.0396,-0.0493,-0.0493,-0.0493,0,-0.0524,-0.0475,-0.0479,-0.0452,-0.0466,-0.0524,-0.0517,-0.0527,-0.056,-0.0566,-0.0565,-0.0547,-0.0532,-0.0503,-0.048,-0.048,-0.047,-0.049,-0.0433,-0.0426,-0.042,-0.04,-0.0391,-0.0491,-0.0491,-0.0491,-0.0492,0,-0.0467,-0.0437,-0.0418,-0.0389,-0.04,-0.0404,-0.0426,-0.0429,-0.0452,-0.0483,-0.0467,-0.0454,-0.0454,-0.0443,-0.0444,-0.0406,-0.0414,-0.0425,-0.0447,-0.0409,-0.039,-0.0382,-0.0487,-0.0488,-0.0489,-0.0489,0,0,-0.0421,-0.0387,-0.0383,-0.0382,-0.0369,-0.0388,-0.0356,-0.0376,-0.0383,-0.0388,-0.0396,-0.036,-0.0392,-0.0384,-0.0394,-0.0368,-0.0311,-0.0378,-0.0378,-0.0354,-0.025,-0.0222,-0.0211,-0.0312,-0.031,-0.0309,-0.025,0,-0.0388,-0.0346,-0.0329,-0.0316,-0.0304,-0.032,-0.0298,-0.0317,-0.0332,-0.034,-0.0348,-0.0346,-0.0359,-0.0363,-0.0338,-0.0326,-0.0289,-0.0326,-0.0292,-0.0291,-0.0269,-0.0201,-0.0171,-0.0113,-0.0243,-0.0242,-0.0241,0,-0.0344,-0.0319,-0.0292,-0.0298,-0.0293,-0.0278,-0.0281,-0.0283,-0.0289,-0.0289,-0.0297,-0.0323,-0.0302,-0.0311,-0.0263,-0.0288,-0.0258,-0.0242,-0.0239,-0.0226,-0.0248,-0.0173,-0.0094,-0.012,-0.0229,-0.023,-0.0231,0,-0.0351,-0.0313,-0.03,-0.0292,-0.0278,-0.0264,-0.0269,-0.0269,-0.0271,-0.0272,-0.0267,-0.0269,-0.0265,-0.0233,-0.0214,-0.0234,-0.0151,-0.0178,-0.0122,-0.0121,-0.0095,-0.0093,-0.0034,-0.0115,-0.0115,-0.0116,-0.0116,0,-0.0333,-0.0326,-0.0296,-0.0293,-0.0262,-0.0267,-0.0259,-0.0248,-0.0243,-0.0236,-0.0257,-0.0237,-0.0242,-0.0216,-0.0192,-0.0129,-0.0132,-0.0097,-0.0092,-0.0077,-0.0074,-0.0097,-0.0201,-0.0113,-0.0114,-0.0114,-0.0115,0,-0.034,-0.0326,-0.0309,-0.0283,-0.0267,-0.0251,-0.0236,-0.0231,-0.0225,-0.0209,-0.0206,-0.0203,-0.016,-0.0156,-0.0102,-0.0094,-0.0058,-0.0012,0.0003,0.0009,0.0024,-0.0081,-0.0079,-0.006,0.0054,0.0055,0.0056,0,-0.0324,-0.0317,-0.0302,-0.0271,-0.0246,-0.0224,-0.02,-0.02,-0.0192,-0.0179,-0.0159,-0.0134,-0.0102,-0.0028,0.0006,0.0061,0.0007,0.0114,0.0088,0.0053,-0.0061,-0.0128,-0.0116,0.014,0.0141,0.0143,0.0144,0,-0.0266,-0.0279,-0.0269,-0.0244,-0.0202,-0.0171,-0.0147,-0.0129,-0.0133,-0.0116,-0.0081,-0.0064,-0.0004,0.0048,0.0107,0.0149,0.0061,0.0143,0.011,0.002,-0.0053,-0.0041,0.0058,0.0155,0.0154,0.0153,0.0153,0.0152,-0.0214,-0.0198,-0.021,-0.0187,-0.0155,-0.011,-0.0083,-0.006,-0.0036,-0.0008,-0.0014,0.0017,0.0049,0.0133,0.0199,0.0254,0.015,0.0228,0.0108,0.0052,0.0058,0.0184,0.0281,0.028,0.028,0.0279,0.0279,0,-0.0151,-0.0153,-0.0137,-0.0117,-0.0105,-0.0094,-0.0041,-0.0014,0.0031,0.0059,0.0076,0.0085,0.0145,0.0201,0.0234,0.0204,0.0226,0.0167,0.0078,0.0099,0.024,0.0236,0.0323,0.0323,0.0323,0.0323,0.0323,0.0323,-0.0113,-0.0095,-0.0115,-0.0072,-0.0064,-0.0022,0.0016,0.0068,0.0099,0.014,0.0141,0.0154,0.0132,0.0003,0.0031,0.0067,0.0016,-0.003,-0.0058,0.0014,0.0012,0.0009,-0.001,0.0025,0.0024,-0.0098,-0.01,-0.0102]},{"header":{"parameterUnit":"m.s-1","parameterCategory":2,"la1":30.2991,"la2":30.254,"lo1":-89.0895,"lo2":-89.0444,"dy":0.0017,"dx":0.0017,"nx":28,"ny":28,"refTime":"2023-08-13T21:00:00:Z","depth":"0","parameterNumber":3,"parameterNumberName":"V-component_of_CURRENTS"},"data":[0,0,0,0,0,0,0,0,0,0,0,0,0,0,0,0,0,0,0,0,0,0,0,0,0,0,0,0,0,0,0,0,0,0,0,0,0,0,0,0,0,0,0,0,0,0,0,0,0,0,0,0,0,0,0,0,0,0,-0.0738,-0.0739,0,-0.0803,-0.0803,-0.0804,-0.0851,-0.0851,-0.0852,-0.0852,-0.0895,-0.0896,-0.0897,0,0,0,0,0,0,0,0,0,0,0,0,0,-0.0689,-0.0689,-0.0738,-0.0739,-0.074,-0.0803,-0.0803,-0.0804,-0.0851,-0.0851,-0.0852,-0.0853,-0.0895,-0.0896,-0.0897,0,0,0,0,0,0,0,0,0,0,0,0,0,-0.0727,-0.0689,-0.0738,-0.0771,-0.0775,-0.0802,-0.0803,-0.0804,-0.0851,-0.0851,-0.0852,-0.0853,-0.0895,-0.0896,-0.0897,-0.0889,0,0,-0.09,-0.09,0,0,0,0,0,0,0,0,-0.0724,-0.0728,-0.0766,-0.0769,-0.0773,-0.082,-0.0802,-0.0832,-0.0851,-0.0821,-0.0852,-0.0853,-0.0868,-0.0871,-0.0881,-0.0891,-0.0893,-0.09,-0.0901,-0.0901,-0.0901,0,0,0,0,0,0,0,-0.0722,-0.0726,-0.0763,-0.0767,-0.0771,-0.0795,-0.08,-0.0808,-0.0839,-0.0824,-0.0828,-0.0836,-0.087,-0.088,-0.0882,-0.0894,-0.09,-0.0901,-0.0902,-0.0902,-0.0949,-0.0949,0,0,0,0,0,0,-0.0713,-0.0723,-0.0761,-0.0765,-0.0751,-0.0795,-0.0801,-0.0804,-0.0839,-0.0846,-0.0835,-0.0838,-0.0878,-0.0881,-0.0884,-0.0904,-0.0901,-0.0902,-0.0903,-0.0948,-0.0949,-0.0949,0,0,0,0,0,0,-0.0711,-0.0715,-0.0758,-0.0747,-0.0754,-0.0795,-0.0797,-0.0805,-0.082,-0.0848,-0.0854,-0.0844,-0.0879,-0.0883,-0.0914,-0.0905,-0.0903,-0.0904,-0.0947,-0.0948,-0.0949,-0.0927,0,0,0,0,0,0,-0.0709,-0.0714,-0.0716,-0.0746,-0.0754,-0.077,-0.0797,-0.0806,-0.0824,-0.0829,-0.0858,-0.0862,-0.0879,-0.0912,-0.0915,-0.0907,-0.0904,-0.0947,-0.0948,-0.0949,-0.0927,-0.0927,-0.0927,0,0,0,0,0,-0.0707,-0.0719,-0.0715,-0.072,-0.0754,-0.0769,-0.0775,-0.0807,-0.0824,-0.0825,-0.0864,-0.0862,-0.0921,-0.0914,-0.0917,-0.0908,-0.0946,-0.0947,-0.0949,-0.0927,-0.0927,-0.0927,0,0,0,0,0,0,-0.0698,-0.0725,-0.0722,-0.0739,-0.0745,-0.0777,-0.0802,-0.0804,-0.0835,-0.0855,-0.0873,-0.088,-0.0901,-0.0913,-0.0905,-0.0928,-0.0931,-0.0933,-0.0913,-0.0913,-0.0913,-0.0884,-0.0905,0,0,0,0,0,-0.0693,-0.0705,-0.0722,-0.0728,-0.0747,-0.0768,-0.0781,-0.0794,-0.0824,-0.0839,-0.0843,-0.0873,-0.0906,-0.0918,-0.0937,-0.095,-0.0942,-0.0947,-0.0947,-0.0947,-0.0927,-0.0924,-0.0921,-0.0954,-0.0954,-0.0954,0,0,-0.0684,-0.0704,-0.0707,-0.0726,-0.0751,-0.0761,-0.0779,-0.0806,-0.0805,-0.0838,-0.0842,-0.0867,-0.0911,-0.0931,-0.094,-0.0942,-0.0935,-0.0948,-0.0948,-0.0927,-0.0925,-0.0922,-0.0919,-0.0955,-0.0954,-0.0954,0,0,-0.069,-0.0704,-0.0723,-0.0728,-0.0758,-0.0768,-0.077,-0.0786,-0.0798,-0.0804,-0.0837,-0.0855,-0.0883,-0.0908,-0.0933,-0.0942,-0.0934,-0.0952,-0.0927,-0.0926,-0.0923,-0.0919,-0.0905,-0.0901,-0.0953,-0.0953,-0.0953,0,-0.0676,-0.0698,-0.0726,-0.0743,-0.0746,-0.0767,-0.0771,-0.0786,-0.0793,-0.0799,-0.0803,-0.0842,-0.0869,-0.0909,-0.0918,-0.0937,-0.0935,-0.0923,-0.0923,-0.092,-0.0917,-0.0903,-0.0899,-0.0953,-0.0953,-0.0953,-0.0953,0,-0.0695,-0.0704,-0.0724,-0.0742,-0.0745,-0.0756,-0.0771,-0.0775,-0.0781,-0.0775,-0.0791,-0.0822,-0.0837,-0.0857,-0.0895,-0.0896,-0.09,-0.092,-0.0916,-0.0912,-0.0898,-0.0894,-0.0951,-0.0952,-0.0952,-0.0952,0,0,-0.0663,-0.0724,-0.0721,-0.073,-0.0743,-0.0749,-0.0762,-0.0769,-0.0784,-0.0767,-0.0759,-0.0806,-0.0795,-0.0822,-0.0855,-0.086,-0.0843,-0.088,-0.0881,-0.0852,-0.083,-0.0838,-0.0834,-0.0867,-0.0867,-0.0866,-0.0829,0,-0.0658,-0.0693,-0.0712,-0.0713,-0.0731,-0.0746,-0.0747,-0.0753,-0.0764,-0.0755,-0.0774,-0.0778,-0.0793,-0.0804,-0.0804,-0.084,-0.0831,-0.085,-0.085,-0.0849,-0.0845,-0.0829,-0.0735,-0.0695,-0.0824,-0.0824,-0.0823,0,-0.0648,-0.0679,-0.0695,-0.0713,-0.0723,-0.0718,-0.0734,-0.0738,-0.0748,-0.0754,-0.0745,-0.0745,-0.0741,-0.0757,-0.0762,-0.0776,-0.0788,-0.0808,-0.0808,-0.0813,-0.0848,-0.0722,-0.0682,-0.0483,-0.0816,-0.0817,-0.0817,0,-0.0611,-0.0646,-0.0663,-0.0666,-0.07,-0.071,-0.0717,-0.0733,-0.0742,-0.0742,-0.0735,-0.0721,-0.0716,-0.0716,-0.0735,-0.075,-0.074,-0.0768,-0.0777,-0.0777,-0.0694,-0.0689,-0.0446,-0.0754,-0.0754,-0.0754,-0.0754,0,-0.0582,-0.0592,-0.0656,-0.0664,-0.0676,-0.0695,-0.0701,-0.0722,-0.0728,-0.0724,-0.0719,-0.0716,-0.0708,-0.07,-0.0712,-0.072,-0.0712,-0.0753,-0.0765,-0.0687,-0.0682,-0.0505,-0.0416,-0.0753,-0.0753,-0.0753,-0.0754,0,-0.0531,-0.0579,-0.0601,-0.0648,-0.0665,-0.0667,-0.0689,-0.0698,-0.0713,-0.0707,-0.0696,-0.07,-0.0699,-0.0689,-0.0699,-0.0701,-0.0598,-0.0715,-0.0617,-0.0618,-0.0457,-0.0373,-0.0223,-0.0124,-0.0709,-0.0709,-0.0709,0,-0.0527,-0.0534,-0.0579,-0.0602,-0.0627,-0.0645,-0.0659,-0.0682,-0.069,-0.0705,-0.0697,-0.0694,-0.0694,-0.0695,-0.0691,-0.0682,-0.0563,-0.0594,-0.061,-0.0407,-0.0322,-0.0309,-0.0234,-0.0485,-0.0483,-0.0481,-0.048,0,-0.0504,-0.0509,-0.0516,-0.0561,-0.0588,-0.0607,-0.063,-0.0635,-0.0659,-0.0667,-0.0686,-0.0689,-0.0691,-0.0645,-0.0632,-0.062,-0.0409,-0.0566,-0.0365,-0.0122,-0.0079,-0.0003,-0.0543,-0.0466,-0.0468,-0.0469,-0.0469,-0.047,-0.0474,-0.046,-0.0476,-0.0504,-0.0535,-0.0564,-0.056,-0.0593,-0.0604,-0.0604,-0.0651,-0.0644,-0.0548,-0.0534,-0.0497,-0.0276,-0.0344,-0.0179,-0.0094,-0.0101,0.0012,-0.0502,-0.0447,-0.0448,-0.0449,-0.045,-0.0451,0,-0.0448,-0.043,-0.0441,-0.0465,-0.047,-0.0514,-0.0537,-0.0527,-0.0535,-0.0548,-0.0566,-0.0473,-0.0325,-0.0202,0.0041,0.021,0.0234,0.0335,0.0446,0.0497,0.0058,0.0089,0.0275,0.0275,0.0275,0.0275,0.0274,0.0274,-0.0431,-0.042,-0.0413,-0.0408,-0.0421,-0.0421,-0.0426,-0.0424,-0.0426,-0.0387,-0.0354,-0.0344,-0.0072,0.0407,0.0761,0.0782,0.098,0.0942,0.1012,0.0805,0.0766,0.0728,0.0782,0.1111,0.1112,0.1454,0.1458,0.1461]}],[{"header":{"parameterUnit":"m.s-1","parameterCategory":2,"la1":30.2991,"la2":30.254,"lo1":-89.0895,"lo2":-89.0444,"dy":0.0017,"dx":0.0017,"nx":28,"ny":28,"refTime":"2023-08-13T21:00:00:Z","depth":"2","parameterNumber":2,"parameterNumberName":"U-component_of_CURRENTS"},"data":[0,0,0,0,0,0,0,0,0,0,0,0,0,0,0,0,0,0,0,0,0,0,0,0,0,0,0,0,0,0,0,0,0,0,0,0,0,0,0,0,0,0,0,0,0,0,0,0,0,0,0,0,0,0,0,0,0,0,-0.2865,-0.2865,0,-0.2918,-0.2919,-0.2919,-0.2903,-0.2901,-0.29,-0.2899,-0.2812,-0.2811,-0.2809,0,0,0,0,0,0,0,0,0,0,0,0,0,-0.2657,-0.2662,-0.2865,-0.2865,-0.2866,-0.2918,-0.2919,-0.292,-0.2903,-0.2901,-0.29,-0.2899,-0.2812,-0.2811,-0.2809,0,0,0,0,0,0,0,0,0,0,0,0,0,-0.2733,-0.2663,-0.2865,-0.2864,-0.2864,-0.2918,-0.2919,-0.292,-0.2903,-0.2901,-0.2899,-0.2898,-0.2813,-0.2811,-0.2809,-0.2833,0,0,-0.2803,-0.2803,0,0,0,0,0,0,0,0,-0.2729,-0.2741,-0.2863,-0.2864,-0.2864,-0.2901,-0.2814,-0.2884,-0.2903,-0.2889,-0.2899,-0.2897,-0.283,-0.2826,-0.2843,-0.2829,-0.2825,-0.2803,-0.2802,-0.2801,-0.2801,0,0,0,0,0,0,0,-0.2724,-0.2738,-0.2886,-0.2864,-0.2865,-0.2829,-0.2839,-0.2827,-0.2866,-0.289,-0.2889,-0.2894,-0.2829,-0.2845,-0.284,-0.2824,-0.2803,-0.2802,-0.28,-0.28,-0.2761,-0.2761,0,0,0,0,0,0,-0.2724,-0.2734,-0.2885,-0.2888,-0.279,-0.2835,-0.2845,-0.2892,-0.2869,-0.2865,-0.2896,-0.2893,-0.2849,-0.2843,-0.2837,-0.2795,-0.2801,-0.28,-0.2799,-0.2761,-0.2761,-0.2761,0,0,0,0,0,0,-0.2721,-0.2739,-0.2882,-0.2808,-0.2824,-0.2841,-0.2892,-0.2894,-0.2893,-0.2875,-0.2868,-0.2891,-0.2847,-0.284,-0.282,-0.2793,-0.2799,-0.2797,-0.2761,-0.2761,-0.2761,-0.2754,0,0,0,0,0,0,-0.2715,-0.2738,-0.277,-0.2811,-0.2829,-0.291,-0.2894,-0.2896,-0.29,-0.2897,-0.287,-0.2861,-0.2845,-0.2823,-0.2818,-0.2791,-0.2796,-0.276,-0.2761,-0.2761,-0.2754,-0.2754,-0.2753,0,0,0,0,0,-0.2708,-0.2768,-0.2773,-0.279,-0.2875,-0.291,-0.2916,-0.292,-0.2902,-0.291,-0.2889,-0.2861,-0.2819,-0.2822,-0.2816,-0.2788,-0.276,-0.2761,-0.2761,-0.2754,-0.2754,-0.2753,0,0,0,0,0,0,-0.2711,-0.2773,-0.2779,-0.2859,-0.2876,-0.2907,-0.292,-0.2916,-0.2912,-0.2894,-0.2871,-0.2862,-0.2836,-0.2821,-0.2825,-0.2779,-0.2782,-0.2781,-0.2778,-0.2778,-0.2778,-0.2755,-0.2794,0,0,0,0,0,-0.2725,-0.2775,-0.2816,-0.2875,-0.2883,-0.2896,-0.2908,-0.2905,-0.2907,-0.2903,-0.2873,-0.2847,-0.2839,-0.2815,-0.2805,-0.2781,-0.2755,-0.2758,-0.2757,-0.2757,-0.2736,-0.27,-0.2694,-0.2761,-0.2761,-0.2761,0,0,-0.2745,-0.2781,-0.2813,-0.2874,-0.2887,-0.2899,-0.2899,-0.2913,-0.2905,-0.2892,-0.2858,-0.2848,-0.2837,-0.2814,-0.2798,-0.279,-0.2726,-0.2757,-0.2757,-0.2736,-0.27,-0.2693,-0.2687,-0.2761,-0.2761,-0.2761,0,0,-0.2777,-0.2836,-0.2865,-0.2877,-0.2889,-0.2901,-0.2899,-0.2905,-0.2889,-0.2865,-0.2859,-0.2842,-0.28,-0.28,-0.2794,-0.2788,-0.2736,-0.2768,-0.2731,-0.2697,-0.2691,-0.2685,-0.2645,-0.2636,-0.2755,-0.2755,-0.2755,0,-0.2787,-0.2839,-0.2876,-0.2886,-0.2888,-0.2896,-0.2898,-0.2899,-0.2887,-0.2861,-0.2842,-0.2795,-0.2796,-0.2781,-0.2777,-0.2785,-0.2744,-0.2733,-0.2694,-0.2688,-0.2682,-0.2643,-0.2632,-0.2755,-0.2755,-0.2755,-0.2755,0,-0.2818,-0.285,-0.2866,-0.2882,-0.2894,-0.29,-0.2899,-0.2882,-0.2847,-0.2828,-0.2781,-0.278,-0.2739,-0.2748,-0.2756,-0.2715,-0.2693,-0.2708,-0.2691,-0.2674,-0.2635,-0.2624,-0.2754,-0.2754,-0.2754,-0.2754,0,0,-0.282,-0.288,-0.2873,-0.2869,-0.2882,-0.289,-0.2877,-0.2861,-0.2825,-0.2787,-0.273,-0.273,-0.2694,-0.2688,-0.2693,-0.267,-0.2613,-0.2653,-0.2651,-0.2605,-0.2507,-0.2304,-0.2273,-0.2601,-0.26,-0.2598,-0.2497,0,-0.2808,-0.2851,-0.2868,-0.2862,-0.287,-0.2866,-0.2847,-0.2826,-0.2791,-0.2737,-0.2717,-0.2665,-0.2682,-0.2642,-0.2624,-0.263,-0.2581,-0.2637,-0.2536,-0.2533,-0.2348,-0.2252,-0.2167,-0.2051,-0.2487,-0.2485,-0.2483,0,-0.2775,-0.2816,-0.2831,-0.2837,-0.2833,-0.2803,-0.2759,-0.2745,-0.2695,-0.2656,-0.2601,-0.2582,-0.2551,-0.2556,-0.251,-0.2531,-0.2496,-0.2495,-0.2492,-0.2288,-0.2307,-0.2138,-0.2015,-0.2465,-0.2467,-0.2468,-0.2469,0,-0.2718,-0.2757,-0.277,-0.2773,-0.2793,-0.2742,-0.2721,-0.2681,-0.2655,-0.2574,-0.2537,-0.2495,-0.2453,-0.2419,-0.2396,-0.2438,-0.2325,-0.2398,-0.2179,-0.2167,-0.2064,-0.2043,-0.232,-0.232,-0.232,-0.232,-0.232,0,-0.2674,-0.2657,-0.2723,-0.2716,-0.2671,-0.2676,-0.2592,-0.2569,-0.2523,-0.2472,-0.2459,-0.2407,-0.2407,-0.2354,-0.2344,-0.2187,-0.227,-0.2123,-0.2101,-0.2058,-0.2038,-0.2384,-0.2393,-0.2316,-0.2317,-0.2318,-0.2319,0,-0.2567,-0.2628,-0.263,-0.2656,-0.263,-0.2578,-0.2514,-0.247,-0.2432,-0.2365,-0.2331,-0.2319,-0.2229,-0.2211,-0.2155,-0.2085,-0.1995,-0.1916,-0.1845,-0.1811,-0.1886,-0.1897,-0.1676,-0.1667,-0.166,-0.1654,-0.1649,0,-0.2526,-0.2525,-0.2569,-0.2538,-0.2512,-0.2444,-0.239,-0.2386,-0.2347,-0.2304,-0.2265,-0.2176,-0.2069,-0.1888,-0.1763,-0.1625,-0.1778,-0.1445,-0.15,-0.1805,-0.1809,-0.1831,-0.185,-0.1396,-0.1389,-0.1384,-0.1379,0,-0.2425,-0.2436,-0.2443,-0.2403,-0.2342,-0.2317,-0.2236,-0.2227,-0.2215,-0.2176,-0.2091,-0.2,-0.1792,-0.1587,-0.1362,-0.1283,-0.146,-0.1318,-0.1645,-0.1539,-0.1523,-0.1533,-0.1565,-0.133,-0.1335,-0.1339,-0.1341,-0.1343,-0.2311,-0.23,-0.2294,-0.2226,-0.218,-0.2128,-0.2062,-0.2042,-0.1988,-0.1902,-0.19,-0.1719,-0.1616,-0.1216,-0.1068,-0.093,-0.1036,-0.1031,-0.1058,-0.1088,-0.1039,-0.1007,-0.071,-0.0711,-0.0713,-0.0714,-0.0715,0,-0.2176,-0.2143,-0.2101,-0.2043,-0.1963,-0.1957,-0.1906,-0.1867,-0.1779,-0.1715,-0.1594,-0.133,-0.113,-0.104,-0.0746,-0.0594,-0.0674,-0.0572,-0.0766,-0.0811,-0.0852,-0.0803,-0.0406,-0.0405,-0.0404,-0.0404,0,0,-0.2093,-0.201,-0.2003,-0.182,-0.175,-0.1621,-0.1574,-0.1552,-0.1497,-0.1327,-0.1199,-0.1189,-0.1085,-0.0849,-0.0692,-0.0536,-0.0689,-0.0474,-0.0722,-0.1005,-0.1047,-0.1098,-0.1066,0,0,0,0,0]},{"header":{"parameterUnit":"m.s-1","parameterCategory":2,"la1":30.2991,"la2":30.254,"lo1":-89.0895,"lo2":-89.0444,"dy":0.0017,"dx":0.0017,"nx":28,"ny":28,"refTime":"2023-08-13T21:00:00:Z","depth":"2","parameterNumber":3,"parameterNumberName":"V-component_of_CURRENTS"},"data":[0,0,0,0,0,0,0,0,0,0,0,0,0,0,0,0,0,0,0,0,0,0,0,0,0,0,0,0,0,0,0,0,0,0,0,0,0,0,0,0,0,0,0,0,0,0,0,0,0,0,0,0,0,0,0,0,0,0,0.0307,0.0309,0,0.0572,0.0575,0.0578,0.0654,0.0653,0.0651,0.065,0.0799,0.0804,0.081,0,0,0,0,0,0,0,0,0,0,0,0,0,0.0101,0.0103,0.0306,0.031,0.0313,0.0572,0.0575,0.0579,0.0654,0.0653,0.0651,0.0649,0.0797,0.0804,0.081,0,0,0,0,0,0,0,0,0,0,0,0,0,0.026,0.0103,0.0306,0.0382,0.0391,0.0571,0.0576,0.058,0.0655,0.0653,0.065,0.0648,0.0795,0.0803,0.0811,0.0905,0,0,0.0835,0.0839,0,0,0,0,0,0,0,0,0.0251,0.0267,0.0367,0.0377,0.0388,0.0578,0.0558,0.0683,0.0655,0.0555,0.065,0.0647,0.0716,0.073,0.0787,0.0912,0.0918,0.0836,0.0841,0.0845,0.0847,0,0,0,0,0,0,0,0.0239,0.0258,0.0412,0.0371,0.0383,0.0484,0.0501,0.0584,0.0642,0.0564,0.057,0.06,0.072,0.0779,0.0791,0.0921,0.0836,0.0843,0.0848,0.0851,0.1043,0.1043,0,0,0,0,0,0,0.0196,0.0246,0.0403,0.042,0.0312,0.0488,0.0508,0.0519,0.0644,0.0662,0.0601,0.0602,0.0767,0.0781,0.0796,0.0805,0.0844,0.0852,0.0857,0.1043,0.1043,0.1044,0,0,0,0,0,0,0.0191,0.0207,0.0393,0.034,0.0371,0.0492,0.0505,0.0525,0.0551,0.0674,0.0689,0.06,0.0766,0.0785,0.085,0.0814,0.0856,0.0863,0.1043,0.1043,0.1043,0.0891,0,0,0,0,0,0,0.0183,0.0203,0.0201,0.0336,0.0372,0.0476,0.0508,0.0532,0.0575,0.0578,0.068,0.0694,0.0765,0.0838,0.0858,0.0826,0.0869,0.1042,0.1043,0.1043,0.0896,0.0887,0.0878,0,0,0,0,0,0.0175,0.0181,0.0198,0.0218,0.0362,0.0477,0.0504,0.0585,0.0576,0.0596,0.066,0.0689,0.0855,0.0846,0.0869,0.0838,0.1042,0.1043,0.1043,0.09,0.0888,0.0879,0,0,0,0,0,0,0.0114,0.0193,0.0215,0.0249,0.0341,0.0488,0.052,0.0563,0.0635,0.0621,0.071,0.0732,0.0777,0.084,0.0827,0.0899,0.0947,0.0952,0.083,0.082,0.0811,0.0779,0.0876,0,0,0,0,0,0.0093,0.0103,0.0211,0.0243,0.0271,0.0383,0.0436,0.0487,0.0573,0.0602,0.0663,0.0734,0.081,0.0834,0.092,0.0963,0.0988,0.0956,0.0947,0.0939,0.0931,0.0936,0.0925,0.1046,0.1046,0.1046,0,0,0.009,0.0129,0.0143,0.0229,0.0299,0.0351,0.0408,0.0474,0.0508,0.0607,0.0643,0.0713,0.0821,0.0872,0.0894,0.0907,0.0917,0.094,0.0931,0.0929,0.0935,0.0923,0.0912,0.1046,0.1046,0.1046,0,0,0.0086,0.0105,0.0109,0.0164,0.0248,0.0319,0.0317,0.0426,0.0455,0.0516,0.0589,0.0638,0.0741,0.0815,0.0865,0.0864,0.0881,0.0869,0.0783,0.0786,0.0775,0.0765,0.0762,0.0754,0.0849,0.0849,0.0849,0,0.0077,0.009,0.0139,0.0158,0.0196,0.0282,0.0306,0.0369,0.0482,0.0498,0.0497,0.0638,0.072,0.0791,0.0783,0.084,0.0831,0.0804,0.0768,0.0759,0.0752,0.0752,0.0744,0.0842,0.0842,0.0843,0.0844,0,0.008,0.0088,0.0095,0.0128,0.0177,0.0216,0.0293,0.0321,0.034,0.0399,0.0444,0.0549,0.0622,0.0649,0.0714,0.071,0.0716,0.0759,0.0777,0.0729,0.0734,0.0728,0.0831,0.0834,0.0836,0.0838,0,0,0.0061,0.0088,0.009,0.0089,0.0154,0.02,0.0226,0.0292,0.0297,0.0351,0.0355,0.0465,0.0482,0.0542,0.0614,0.0611,0.0554,0.0633,0.0637,0.0599,0.0526,0.0577,0.0577,0.0558,0.0557,0.0556,0.054,0,0.0048,0.0056,0.0079,0.0095,0.01,0.0157,0.0178,0.0236,0.0274,0.0298,0.0362,0.0404,0.0453,0.0462,0.0466,0.0555,0.0535,0.0553,0.0607,0.0609,0.0634,0.0571,0.0653,0.0649,0.0535,0.0535,0.0534,0,0.0034,0.0034,0.0037,0.0047,0.0053,0.0071,0.0101,0.0135,0.019,0.0205,0.0229,0.0286,0.032,0.0352,0.0407,0.0398,0.0435,0.0484,0.0485,0.0584,0.0651,0.0688,0.0644,0.0526,0.0527,0.0527,0.0528,0,-0.0011,0.0003,-0.0005,0.0005,0.0036,0.0029,0.0043,0.0093,0.0111,0.0136,0.014,0.0182,0.0208,0.0238,0.0337,0.0346,0.0383,0.0428,0.0507,0.0511,0.0624,0.064,0.0435,0.0435,0.0435,0.0435,0.0435,0,-0.0039,-0.0051,-0.0036,-0.0039,-0.0065,-0.0034,-0.0048,-0.0023,0.0005,0.0025,0.0072,0.0106,0.0169,0.0219,0.0284,0.0374,0.0339,0.0475,0.0505,0.0575,0.0587,0.053,0.0542,0.0434,0.0434,0.0434,0.0435,0,-0.0089,-0.0071,-0.0088,-0.0081,-0.0087,-0.0111,-0.011,-0.0107,-0.0085,-0.006,-0.0064,0.0027,0.0082,0.0158,0.0239,0.0329,0.0406,0.0445,0.0518,0.0557,0.0539,0.0543,0.0518,0.052,0.0521,0.0522,0.0523,0,-0.0117,-0.0128,-0.0128,-0.014,-0.0146,-0.0174,-0.0185,-0.0166,-0.0147,-0.0082,-0.0061,-0.0009,0.0076,0.0207,0.034,0.0437,0.0415,0.058,0.0637,0.0512,0.0544,0.0546,0.0548,0.0719,0.0721,0.0723,0.0725,0,-0.0172,-0.0165,-0.0168,-0.0194,-0.0213,-0.0229,-0.0238,-0.0235,-0.0193,-0.0149,-0.006,0.0006,0.0156,0.0348,0.0474,0.0542,0.0569,0.0626,0.0469,0.0691,0.0702,0.0733,0.0729,0.0743,0.0741,0.0739,0.0738,0.0738,-0.0205,-0.0224,-0.0214,-0.0241,-0.0259,-0.0271,-0.0282,-0.0256,-0.0222,-0.0146,-0.0064,0.0099,0.0271,0.0517,0.0582,0.0667,0.069,0.0767,0.076,0.0751,0.0783,0.0797,0.086,0.0859,0.0858,0.0857,0.0857,0,-0.0232,-0.0236,-0.026,-0.0283,-0.0318,-0.03,-0.0294,-0.0292,-0.0241,-0.0123,-0.0033,0.0172,0.0445,0.0574,0.0791,0.0884,0.0839,0.0848,0.0834,0.0823,0.0811,0.0841,0.0935,0.0934,0.0933,0.0932,0,0,-0.0234,-0.0261,-0.0274,-0.0327,-0.0339,-0.0352,-0.034,-0.0325,-0.0237,-0.0158,0.002,0.0239,0.0527,0.0654,0.0774,0.0884,0.0778,0.0841,0.0801,0.0765,0.0748,0.0826,0.0871,0,0,0,0,0]}],[{"header":{"parameterUnit":"m.s-1","parameterCategory":2,"la1":30.2991,"la2":30.254,"lo1":-89.0895,"lo2":-89.0444,"dy":0.0017,"dx":0.0017,"nx":28,"ny":28,"refTime":"2023-08-13T21:00:00:Z","depth":"4","parameterNumber":2,"parameterNumberName":"U-component_of_CURRENTS"},"data":[0,0,0,0,0,0,0,0,0,0,0,0,0,0,0,0,0,0,0,0,0,0,0,0,0,0,0,0,0,0,0,0,0,0,0,0,0,0,0,0,0,0,0,0,0,0,0,0,0,0,0,0,0,0,0,0,0,0,-0.1308,-0.1309,0,-0.1327,-0.1326,-0.1326,-0.1334,-0.1334,-0.1335,-0.1335,-0.1395,-0.1396,-0.1397,0,0,0,0,0,0,0,0,0,0,0,0,0,-0.1245,-0.1246,-0.1308,-0.1309,-0.1309,-0.1327,-0.1326,-0.1326,-0.1334,-0.1334,-0.1335,-0.1335,-0.1394,-0.1396,-0.1397,0,0,0,0,0,0,0,0,0,0,0,0,0,-0.1264,-0.1246,-0.1308,-0.1319,-0.132,-0.1327,-0.1326,-0.1326,-0.1334,-0.1334,-0.1335,-0.1335,-0.1394,-0.1396,-0.1398,-0.1397,0,0,-0.1403,-0.1404,0,0,0,0,0,0,0,0,-0.1263,-0.1266,-0.1316,-0.1318,-0.132,-0.1333,-0.1326,-0.1353,-0.1333,-0.1323,-0.1335,-0.1336,-0.1381,-0.1384,-0.1378,-0.1399,-0.1402,-0.1403,-0.1404,-0.1405,-0.1406,0,0,0,0,0,0,0,-0.1262,-0.1265,-0.131,-0.1317,-0.1319,-0.1311,-0.1315,-0.1331,-0.1345,-0.1324,-0.1326,-0.1336,-0.1381,-0.1376,-0.138,-0.1403,-0.1403,-0.1405,-0.1406,-0.1407,-0.1478,-0.1479,0,0,0,0,0,0,-0.1271,-0.1264,-0.131,-0.1311,-0.1298,-0.1313,-0.1316,-0.1324,-0.1344,-0.1349,-0.1335,-0.1336,-0.1373,-0.1378,-0.1382,-0.144,-0.1405,-0.1407,-0.1408,-0.1478,-0.1479,-0.1479,0,0,0,0,0,0,-0.1269,-0.1274,-0.1309,-0.1292,-0.1297,-0.1314,-0.1322,-0.1324,-0.1343,-0.1353,-0.1358,-0.1356,-0.1374,-0.138,-0.1408,-0.144,-0.1408,-0.1409,-0.1477,-0.1478,-0.1479,-0.1518,0,0,0,0,0,0,-0.1267,-0.1274,-0.1286,-0.1293,-0.1298,-0.1325,-0.1322,-0.1324,-0.1349,-0.1351,-0.1372,-0.1377,-0.1374,-0.1406,-0.141,-0.1442,-0.1411,-0.1476,-0.1477,-0.1479,-0.1516,-0.1521,-0.1525,0,0,0,0,0,-0.1265,-0.1279,-0.1287,-0.1293,-0.1314,-0.1326,-0.1327,-0.1338,-0.135,-0.1357,-0.1371,-0.1377,-0.1419,-0.1408,-0.1413,-0.1446,-0.1475,-0.1477,-0.1479,-0.1514,-0.152,-0.1525,0,0,0,0,0,0,-0.126,-0.1282,-0.129,-0.1312,-0.1325,-0.1329,-0.1346,-0.1352,-0.1367,-0.1379,-0.1385,-0.139,-0.1427,-0.1429,-0.1416,-0.147,-0.145,-0.1453,-0.1475,-0.148,-0.1485,-0.1475,-0.1412,0,0,0,0,0,-0.1266,-0.1281,-0.1299,-0.1316,-0.1331,-0.1343,-0.1353,-0.1361,-0.1374,-0.1382,-0.1396,-0.1414,-0.1434,-0.1451,-0.1462,-0.1493,-0.1485,-0.1518,-0.1523,-0.1526,-0.1521,-0.154,-0.1546,-0.1485,-0.1485,-0.1485,0,0,-0.1268,-0.1284,-0.1293,-0.1317,-0.1332,-0.1348,-0.135,-0.1375,-0.1389,-0.1388,-0.1418,-0.1432,-0.1444,-0.1474,-0.1492,-0.1484,-0.1537,-0.1529,-0.1532,-0.1525,-0.1543,-0.1548,-0.1554,-0.1487,-0.1486,-0.1486,0,0,-0.1276,-0.13,-0.1315,-0.1331,-0.1361,-0.1367,-0.1382,-0.14,-0.1414,-0.1439,-0.1445,-0.147,-0.1502,-0.1509,-0.152,-0.1555,-0.1558,-0.1575,-0.1596,-0.1614,-0.1619,-0.1624,-0.1611,-0.1614,-0.1581,-0.1581,-0.1581,0,-0.1282,-0.1301,-0.1321,-0.1341,-0.136,-0.1381,-0.1401,-0.1414,-0.1436,-0.1451,-0.1456,-0.1501,-0.1513,-0.1548,-0.156,-0.1566,-0.1571,-0.1576,-0.162,-0.1624,-0.1628,-0.1614,-0.1617,-0.1583,-0.1583,-0.1583,-0.1582,0,-0.1291,-0.1317,-0.1333,-0.1363,-0.1383,-0.1406,-0.1432,-0.1455,-0.1479,-0.1488,-0.1531,-0.1541,-0.1564,-0.1582,-0.1585,-0.1626,-0.1617,-0.1622,-0.1606,-0.1637,-0.162,-0.1622,-0.1586,-0.1585,-0.1585,-0.1584,0,0,-0.1278,-0.1328,-0.1337,-0.1354,-0.1399,-0.1412,-0.1452,-0.1483,-0.1504,-0.1535,-0.1557,-0.1598,-0.1607,-0.1618,-0.1631,-0.1651,-0.1678,-0.1656,-0.1656,-0.1642,-0.1708,-0.1539,-0.1525,-0.1705,-0.1705,-0.1706,-0.1682,0,-0.1282,-0.1317,-0.1344,-0.1379,-0.1401,-0.1439,-0.1468,-0.1501,-0.1528,-0.155,-0.158,-0.1604,-0.1621,-0.1636,-0.1663,-0.1676,-0.1688,-0.1683,-0.1682,-0.1681,-0.1526,-0.1523,-0.1709,-0.1684,-0.1684,-0.1685,-0.1685,0,-0.1278,-0.1305,-0.134,-0.1388,-0.1403,-0.1428,-0.1479,-0.1504,-0.1547,-0.1568,-0.1605,-0.1619,-0.1656,-0.1659,-0.1701,-0.1705,-0.1708,-0.1713,-0.1713,-0.1539,-0.1515,-0.165,-0.1688,-0.1688,-0.1688,-0.1688,-0.1687,0,-0.1243,-0.1299,-0.1326,-0.1344,-0.1402,-0.1432,-0.1465,-0.1514,-0.1531,-0.1577,-0.1584,-0.1636,-0.1645,-0.1685,-0.1688,-0.1711,-0.1709,-0.1737,-0.1583,-0.1571,-0.1717,-0.1712,-0.1754,-0.1754,-0.1754,-0.1754,-0.1755,0,-0.1221,-0.1247,-0.1317,-0.133,-0.1363,-0.1417,-0.1448,-0.1487,-0.1529,-0.1531,-0.1589,-0.1578,-0.1656,-0.1658,-0.1683,-0.1613,-0.1704,-0.1568,-0.155,-0.1732,-0.173,-0.1717,-0.1713,-0.1754,-0.1754,-0.1754,-0.1754,0,-0.117,-0.1219,-0.1253,-0.1325,-0.1346,-0.1371,-0.1429,-0.1439,-0.1496,-0.1497,-0.151,-0.1541,-0.1523,-0.1561,-0.159,-0.1564,-0.1543,-0.1496,-0.1654,-0.1649,-0.1401,-0.1399,-0.1333,-0.1326,-0.1321,-0.1316,-0.1313,0,-0.114,-0.1156,-0.1232,-0.1249,-0.1284,-0.1328,-0.1343,-0.1412,-0.1417,-0.1449,-0.1431,-0.1422,-0.1428,-0.1323,-0.1386,-0.138,-0.1374,-0.1365,-0.1412,-0.1366,-0.1357,-0.1364,-0.1369,-0.1304,-0.1303,-0.1302,-0.13,0,-0.108,-0.1122,-0.1147,-0.1182,-0.121,-0.1224,-0.126,-0.1257,-0.1314,-0.1372,-0.1303,-0.1269,-0.1214,-0.121,-0.1185,-0.12,-0.138,-0.131,-0.1322,-0.1367,-0.1331,-0.1329,-0.134,-0.1282,-0.1284,-0.1286,-0.1287,0,-0.1034,-0.1036,-0.1075,-0.1093,-0.1119,-0.1105,-0.1144,-0.1134,-0.1145,-0.12,-0.1163,-0.1153,-0.1183,-0.111,-0.1103,-0.1074,-0.1082,-0.1091,-0.1116,-0.1137,-0.1082,-0.1009,-0.0826,0,0,0,0,0,-0.0975,-0.0963,-0.0977,-0.098,-0.0999,-0.1009,-0.1067,-0.111,-0.1172,-0.1086,-0.1125,-0.1065,-0.0999,-0.0997,-0.0928,-0.1024,-0.1099,-0.0942,-0.1128,-0.118,-0.1201,-0.1153,0,0,0,0,0,0,-0.0931,-0.0944,-0.0943,-0.0875,-0.0849,-0.0849,-0.0884,-0.0937,-0.0905,-0.0974,-0.0938,-0.0984,-0.0935,-0.0997,-0.0891,-0.0894,-0.099,-0.0949,-0.0946,-0.1167,-0.1187,-0.1204,-0.1162,0,0,0,0,0]},{"header":{"parameterUnit":"m.s-1","parameterCategory":2,"la1":30.2991,"la2":30.254,"lo1":-89.0895,"lo2":-89.0444,"dy":0.0017,"dx":0.0017,"nx":28,"ny":28,"refTime":"2023-08-13T21:00:00:Z","depth":"4","parameterNumber":3,"parameterNumberName":"V-component_of_CURRENTS"},"data":[0,0,0,0,0,0,0,0,0,0,0,0,0,0,0,0,0,0,0,0,0,0,0,0,0,0,0,0,0,0,0,0,0,0,0,0,0,0,0,0,0,0,0,0,0,0,0,0,0,0,0,0,0,0,0,0,0,0,-0.0038,-0.0038,0,-0.0015,-0.0015,-0.0015,0.0026,0.0027,0.0028,0.0029,0.0065,0.0065,0.0065,0,0,0,0,0,0,0,0,0,0,0,0,0,-0.0036,-0.0037,-0.0038,-0.0038,-0.0037,-0.0015,-0.0015,-0.0015,0.0026,0.0027,0.0028,0.0029,0.0065,0.0065,0.0065,0,0,0,0,0,0,0,0,0,0,0,0,0,-0.0029,-0.0037,-0.0038,-0.0014,-0.0011,-0.0015,-0.0015,-0.0015,0.0026,0.0027,0.0029,0.003,0.0065,0.0065,0.0065,0.004,0,0,0.0066,0.0066,0,0,0,0,0,0,0,0,-0.0029,-0.0029,-0.0018,-0.0015,-0.0012,0.0005,-0.0001,0.0005,0.0026,0.0011,0.0029,0.0031,0.0046,0.0047,0.0047,0.0042,0.0043,0.0066,0.0066,0.0066,0.0066,0,0,0,0,0,0,0,-0.003,-0.003,-0.003,-0.0017,-0.0014,-0.0,0.0002,-0.0,0.002,0.0012,0.0016,0.0019,0.0047,0.0047,0.0049,0.0044,0.0066,0.0066,0.0066,0.0066,0.0015,0.0014,0,0,0,0,0,0,-0.0033,-0.003,-0.0031,-0.0029,-0.0017,-0.0001,0.0001,-0.0003,0.002,0.0025,0.0018,0.0021,0.0046,0.0048,0.005,0.0025,0.0066,0.0066,0.0066,0.0017,0.0015,0.0013,0,0,0,0,0,0,-0.0033,-0.0034,-0.0032,-0.0028,-0.0026,-0.0003,-0.0008,-0.0003,-0.0001,0.0024,0.003,0.0016,0.0047,0.005,0.004,0.0027,0.0066,0.0067,0.0018,0.0016,0.0014,-0.0027,0,0,0,0,0,0,-0.0033,-0.0034,-0.004,-0.0029,-0.0027,-0.0042,-0.0009,-0.0003,-0.0,0.0004,0.0024,0.0029,0.0048,0.0039,0.004,0.0028,0.0067,0.002,0.0017,0.0015,-0.0024,-0.003,-0.0036,0,0,0,0,0,-0.0034,-0.0046,-0.0041,-0.0041,-0.0036,-0.0043,-0.0042,-0.002,-0.0002,-0.0012,0.0002,0.0028,0.0023,0.0038,0.004,0.0027,0.0022,0.0018,0.0015,-0.0021,-0.0029,-0.0036,0,0,0,0,0,0,-0.0046,-0.0042,-0.0037,-0.0047,-0.0049,-0.0036,-0.0038,-0.0028,-0.0025,-0.0021,0.0008,0.0012,0.0,0.001,0.0027,0.0001,0.0026,0.0023,-0.0002,-0.0009,-0.0015,-0.0023,0.0067,0,0,0,0,0,-0.0054,-0.0063,-0.0059,-0.0069,-0.007,-0.0058,-0.0057,-0.005,-0.0044,-0.004,-0.0027,-0.0018,-0.0015,-0.0014,-0.0012,-0.003,0.0008,-0.0039,-0.0045,-0.005,-0.0058,-0.0,-0.0001,0.0002,0.0002,0.0002,0,0,-0.0062,-0.0061,-0.0066,-0.0073,-0.0069,-0.0087,-0.0055,-0.0063,-0.0078,-0.0039,-0.0055,-0.004,-0.0026,-0.0041,-0.0046,-0.0032,-0.0035,-0.0054,-0.0059,-0.0064,-0.0003,-0.0003,-0.0003,0.0,0.0,0.0001,0,0,-0.0086,-0.0083,-0.0101,-0.0109,-0.0113,-0.011,-0.0116,-0.0114,-0.0111,-0.0129,-0.0101,-0.0098,-0.0099,-0.0089,-0.0084,-0.0128,-0.0069,-0.0128,-0.0162,-0.0106,-0.0105,-0.0103,-0.0061,-0.0056,-0.013,-0.013,-0.013,0,-0.0096,-0.0118,-0.0108,-0.013,-0.014,-0.0125,-0.0153,-0.0155,-0.0158,-0.0162,-0.0142,-0.0139,-0.0123,-0.0133,-0.0145,-0.014,-0.0098,-0.013,-0.011,-0.0108,-0.0106,-0.0063,-0.0056,-0.0132,-0.0132,-0.0132,-0.0132,0,-0.0135,-0.0156,-0.0167,-0.0191,-0.0204,-0.0226,-0.0229,-0.0243,-0.0234,-0.023,-0.0238,-0.0214,-0.0209,-0.0203,-0.0185,-0.0174,-0.0147,-0.012,-0.0084,-0.0108,-0.0062,-0.0054,-0.0136,-0.0135,-0.0134,-0.0134,0,0,-0.0152,-0.0187,-0.0192,-0.0218,-0.0239,-0.0258,-0.0287,-0.0308,-0.0325,-0.0316,-0.033,-0.0316,-0.0291,-0.0284,-0.0256,-0.0211,-0.0158,-0.0162,-0.0157,-0.0108,-0.0032,0.0006,0.0018,-0.0111,-0.011,-0.011,-0.0008,0,-0.0186,-0.0239,-0.0247,-0.0306,-0.0337,-0.0339,-0.0369,-0.0386,-0.0385,-0.0397,-0.0364,-0.0367,-0.0325,-0.0319,-0.0268,-0.0194,-0.0138,-0.0188,-0.0028,-0.0025,0.0024,0.0028,-0.0106,-0.0002,0.0,0.0002,0.0003,0,-0.0227,-0.0258,-0.0317,-0.037,-0.0382,-0.0413,-0.0455,-0.0479,-0.0487,-0.0483,-0.0471,-0.0442,-0.0407,-0.0352,-0.0222,-0.0251,-0.0147,-0.0075,-0.0068,-0.0013,0.0029,0.0027,0.0018,0.0017,0.0015,0.0014,0.0014,0,-0.0253,-0.0311,-0.036,-0.0378,-0.0431,-0.0458,-0.0482,-0.0505,-0.0527,-0.0534,-0.0542,-0.0493,-0.0469,-0.0341,-0.0207,-0.0202,-0.0044,-0.0017,0.0116,0.0119,0.0074,0.0072,0.0101,0.0101,0.0101,0.0101,0.01,0,-0.029,-0.0336,-0.0376,-0.0406,-0.047,-0.049,-0.0548,-0.0565,-0.0585,-0.0606,-0.0582,-0.0577,-0.0456,-0.0361,-0.0221,-0.0036,-0.0048,0.0111,0.0153,0.0051,0.0045,0.008,0.0077,0.0104,0.0104,0.0103,0.0102,0,-0.0323,-0.0345,-0.0411,-0.0466,-0.0487,-0.0533,-0.0591,-0.0628,-0.0638,-0.0663,-0.0665,-0.0633,-0.0499,-0.0365,-0.0166,-0.0057,0.0116,0.0193,0.0057,0.0089,0.0244,0.0236,0.0346,0.0348,0.035,0.0352,0.0353,0,-0.0345,-0.038,-0.0453,-0.0492,-0.0521,-0.0584,-0.0629,-0.0655,-0.0678,-0.0683,-0.0687,-0.0601,-0.0546,-0.026,-0.0113,0.0148,0.0198,0.0268,0.0271,0.0242,0.0271,0.0261,0.0251,0.0357,0.0357,0.0358,0.0358,0,-0.0392,-0.0416,-0.0465,-0.0536,-0.0591,-0.0658,-0.0705,-0.0718,-0.0731,-0.0743,-0.0676,-0.0557,-0.0411,-0.0226,-0.0032,0.0157,0.0202,0.0289,0.0287,0.029,0.0256,0.0281,0.0269,0.0365,0.0364,0.0363,0.0363,0,-0.0424,-0.0465,-0.0517,-0.058,-0.0651,-0.0702,-0.0728,-0.0726,-0.0737,-0.0704,-0.0677,-0.0539,-0.0467,-0.0218,-0.0037,0.0143,0.0202,0.0253,0.0253,0.0248,0.0189,0.0128,0.0239,0,0,0,0,0,-0.0451,-0.0492,-0.0557,-0.0626,-0.0694,-0.0728,-0.0769,-0.0779,-0.0769,-0.0707,-0.068,-0.0529,-0.0277,-0.0199,-0.0001,0.0002,0.0219,0.0236,0.0275,0.0402,0.0394,0.0346,0,0,0,0,0,0,-0.0471,-0.0531,-0.0559,-0.0645,-0.0693,-0.0766,-0.0788,-0.0784,-0.0731,-0.0697,-0.0562,-0.0486,-0.0243,-0.0382,-0.0002,0.0047,0.0099,0.0352,0.0356,0.0407,0.04,0.0393,0.0341,0,0,0,0,0]}]]